Location: Leuk
(46.3174°N, 7.6341°E)
Time: 16:10:51
(UTC+00:00)

NOSS 3-4 (C) - Pass Details

Date: 09 March 2021
Orbit: 873 x 1339 km, 63.4° (Epoch: 13 April)

Event Time Altitude Azimuth Distance (km) Brightness Sun altitude
Exits shadow 04:16:36 15° 210° (SSW) 2,197 5.0 -17.5°
Maximum altitude 04:21:32 78° 126° (SE) 932 3.5 -16.7°
Drops below altitude 10° 04:27:47 10° 41° (NE) 2,716 6.6 -15.6°
Sets 04:30:28 0° 40° (NE) 3,729 7.4 -15.2°
